Cross City, FL

9:48 PM EDT on October 21, 2019 (GMT -0400)
Cross City

Weather History for KCTY - July, 2019

Change the Weather History Date:

Thursday, July 25, 2019

  Actual Average Record
Temperature  
Mean Temperature 77 °F 82 °F  
Max Temperature 84 °F 91 °F 95 °F (2011)
Min Temperature 70 °F 72 °F 69 °F (2003)
Degree Days  
Heating Degree Days 0 0  
Month to date heating degree days 0  
Since 1 June heating degree days 0  
Since 1 July heating degree days 0  
Cooling Degree Days 12 17  
Month to date cooling degree days 409  
Year to date cooling degree days 1335  
Since 1 June cooling degree days 856  
Growing Degree Days 27 (Base 50)    
Moisture  
Dew Point 73 °F    
Average Humidity 89    
Maximum Humidity 100    
Minimum Humidity 70    
Precipitation  
Precipitation 0.00 in 0.21 in 1.25 in (2015)
Month to date precipitation 4.44  
Year to date precipitation 26.70  
Sea Level Pressure  
Sea Level Pressure 30.03 in    
Wind  
Wind Speed 4 mph (East)    
Max Wind Speed 8 mph    
Max Gust Speed -    
Visibility 8 miles    
Events Fog , Thunderstorm    
T = Trace of Precipitation, MM = Missing Value Source: NWS Daily Summary

Daily Weather History Graph

Daily Weather History Graph

Search for Another Location

Airport or City:

Astronomy

Jul. 25, 2019 Rise Set
Actual Time 6:47 AM EDT 8:29 PM EDT
Civil Twilight 6:21 AM EDT 8:55 PM EDT
Nautical Twilight 5:50 AM EDT 9:27 PM EDT
Astronomical Twilight 5:16 AM EDT 10:00 PM EDT
Moon 1:16 AM EDT (7/25) 2:21 PM EDT (7/25)
Length of Visible Light 14h 34m
Length of Day
13h 41m
Last Quarter, 44% of the Moon is Illuminated
Jul 25
Last Quarter
Jul 31
New
Aug 7
First Quarter
Aug 15
Full
Aug 23
Last Quarter

Hourly Weather History & Observations

Time (EDT) Temp. Heat Index Dew Point Humidity Pressure Visibility Wind Dir Wind Speed Gust Speed Precip Events Conditions
12:15 AM 72.1 °F - 71.8 °F 99% 29.98 in 10.0 mi East 3.5 mph - N/A   Scattered Clouds
12:35 AM 72.1 °F - 72.0 °F 99% 29.98 in 2.5 mi NE 4.6 mph - N/A   Mostly Cloudy
12:55 AM 72.1 °F - 72.0 °F 99% 29.99 in 2.0 mi ENE 5.8 mph - N/A   Overcast
1:15 AM 72.0 °F - 71.8 °F 99% 29.99 in 7.0 mi East 3.5 mph - N/A   Overcast
1:35 AM 71.8 °F - 71.6 °F 99% 29.99 in 10.0 mi East 4.6 mph - N/A   Overcast
1:55 AM 71.6 °F - 71.4 °F 99% 29.98 in 10.0 mi Calm Calm - N/A   Overcast
2:15 AM 71.2 °F - 70.9 °F 99% 29.98 in 10.0 mi East 3.5 mph - N/A   Mostly Cloudy
2:35 AM 71.1 °F - 70.7 °F 99% 29.97 in 10.0 mi ESE 3.5 mph - N/A   Mostly Cloudy
2:55 AM 70.9 °F - 70.5 °F 99% 29.97 in 10.0 mi ENE 3.5 mph - N/A   Overcast
3:15 AM 70.7 °F - 70.5 °F 99% 29.97 in 10.0 mi NE 3.5 mph - N/A   Overcast
3:35 AM 70.5 °F - 70.3 °F 99% 29.97 in 10.0 mi Calm Calm - N/A   Mostly Cloudy
3:55 AM 70.3 °F - 70.2 °F 99% 29.97 in 10.0 mi East 3.5 mph - N/A   Scattered Clouds
4:15 AM 70.3 °F - 70.2 °F 99% 29.97 in 10.0 mi Calm Calm - N/A   Scattered Clouds
4:35 AM 70.2 °F - 70.0 °F 99% 29.98 in 7.0 mi Calm Calm - N/A   Overcast
4:55 AM 70.3 °F - 70.2 °F 99% 29.98 in 1.8 mi Calm Calm - N/A   Overcast
5:15 AM 70.3 °F - 70.2 °F 99% 29.98 in 0.8 mi Calm Calm - N/A   Overcast
5:35 AM 70.3 °F - 70.3 °F 100% 29.98 in 0.5 mi NE 3.5 mph - N/A Fog Fog
5:55 AM 70.5 °F - 70.3 °F 99% 29.98 in 0.8 mi ENE 4.6 mph - N/A   Overcast
6:15 AM 70.5 °F - 70.5 °F 100% 29.99 in 0.2 mi NNE 3.5 mph - N/A Fog Fog
6:35 AM 69.8 °F - 69.8 °F 100% 30.00 in 0.2 mi NE 3.5 mph - N/A Fog Fog
6:55 AM 70.3 °F - 70.3 °F 100% 30.00 in 0.2 mi NE 4.6 mph - N/A Fog Fog
7:15 AM 70.3 °F - 70.3 °F 100% 30.01 in 0.5 mi NE 5.8 mph - N/A Fog Fog
7:35 AM 70.7 °F - 70.7 °F 100% 30.01 in 0.2 mi NE 4.6 mph - N/A Fog Fog
7:55 AM 70.9 °F - 70.9 °F 100% 30.02 in 0.5 mi NE 5.8 mph - N/A Fog Fog
8:15 AM 71.4 °F - 71.4 °F 100% 30.03 in 4.0 mi ENE 4.6 mph - N/A   Overcast
8:35 AM 72.5 °F - 72.3 °F 99% 30.03 in 10.0 mi NE 4.6 mph - N/A   Mostly Cloudy
8:55 AM 73.8 °F - 72.7 °F 96% 30.05 in 10.0 mi East 5.8 mph - N/A   Mostly Cloudy
9:15 AM 74.7 °F - 72.9 °F 94% 30.05 in 10.0 mi East 5.8 mph - N/A   Overcast
9:35 AM 76.1 °F - 73.4 °F 91% 30.05 in 10.0 mi ENE 6.9 mph - N/A   Mostly Cloudy
9:55 AM 77.0 °F - 73.4 °F 89% 30.06 in 10.0 mi East 5.8 mph - N/A   Mostly Cloudy
10:15 AM 77.4 °F - 73.0 °F 86% 30.06 in - East 5.8 mph - N/A   Mostly Cloudy
10:35 AM 77.7 °F - 73.0 °F 85% 30.06 in 10.0 mi East 6.9 mph - N/A   Scattered Clouds
10:55 AM 78.4 °F - 73.6 °F 85% 30.07 in 10.0 mi East 5.8 mph - N/A Thunderstorm Scattered Clouds
11:15 AM 79.7 °F - 74.3 °F 83% 30.07 in 10.0 mi East 5.8 mph - N/A   Clear
11:35 AM 78.4 °F - 72.9 °F 83% 30.07 in 10.0 mi East 6.9 mph - N/A   Scattered Clouds
11:55 AM 77.7 °F - 73.2 °F 86% 30.07 in 10.0 mi East 5.8 mph - N/A   Scattered Clouds
12:15 PM 77.9 °F - 73.6 °F 86% 30.07 in 10.0 mi East 4.6 mph - N/A Thunderstorm Scattered Clouds
12:35 PM 78.4 °F - 73.8 °F 85% 30.07 in 10.0 mi East 4.6 mph - N/A   Scattered Clouds
12:55 PM 79.2 °F - 73.6 °F 83% 30.07 in 10.0 mi East 5.8 mph - N/A   Mostly Cloudy
1:15 PM 79.0 °F - 73.4 °F 83% 30.07 in 10.0 mi East 5.8 mph - N/A   Scattered Clouds
1:35 PM 79.3 °F - 73.9 °F 83% 30.06 in 10.0 mi ESE 8.1 mph - N/A   Scattered Clouds
1:55 PM 79.3 °F - 74.3 °F 84% 30.06 in - ESE 5.8 mph - N/A   Scattered Clouds
2:15 PM 79.2 °F - 73.6 °F 83% 30.06 in 10.0 mi ESE 5.8 mph - N/A   Scattered Clouds
2:35 PM 79.7 °F - 73.6 °F 81% 30.06 in 10.0 mi ESE 4.6 mph - N/A   Scattered Clouds
2:55 PM 80.6 °F 85.9 °F 74.7 °F 82% 30.05 in 10.0 mi SSE 5.8 mph - N/A   Scattered Clouds
3:15 PM 80.8 °F 85.9 °F 73.9 °F 80% 30.05 in 10.0 mi SE 4.6 mph - N/A   Scattered Clouds
3:35 PM 80.8 °F 85.6 °F 73.2 °F 78% 30.04 in 7.0 mi SSE 3.5 mph - N/A   Haze
3:55 PM 82.2 °F 88.3 °F 74.1 °F 76% 30.04 in 10.0 mi ESE 5.8 mph - N/A   Mostly Cloudy
4:15 PM 82.0 °F 87.7 °F 73.2 °F 75% 30.03 in 10.0 mi SSE 5.8 mph - N/A   Scattered Clouds
4:35 PM 82.4 °F 88.2 °F 73.4 °F 74% 30.03 in 10.0 mi East 5.8 mph - N/A   Scattered Clouds
4:55 PM 83.1 °F 89.8 °F 73.9 °F 74% 30.03 in 10.0 mi East 4.6 mph - N/A   Scattered Clouds
5:15 PM 82.9 °F 89.1 °F 73.4 °F 73% 30.03 in 10.0 mi East 6.9 mph - N/A   Scattered Clouds
5:35 PM 82.8 °F 88.7 °F 73.2 °F 73% 30.03 in 10.0 mi East 6.9 mph - N/A   Scattered Clouds
5:55 PM 82.4 °F 87.9 °F 73.0 °F 73% 30.03 in 10.0 mi East 5.8 mph - N/A   Scattered Clouds
6:15 PM 83.1 °F 88.6 °F 72.3 °F 70% 30.04 in 10.0 mi East 5.8 mph - N/A   Mostly Cloudy
6:35 PM 81.7 °F 86.7 °F 72.9 °F 74% 30.03 in 10.0 mi ENE 4.6 mph - N/A   Mostly Cloudy
6:55 PM 81.7 °F 86.9 °F 73.2 °F 75% 30.03 in 10.0 mi ENE 4.6 mph - N/A   Overcast
7:15 PM 81.5 °F 86.9 °F 73.6 °F 77% 30.03 in 10.0 mi NE 3.5 mph - N/A   Overcast
7:35 PM 81.5 °F 86.7 °F 73.4 °F 76% 30.04 in 10.0 mi East 4.6 mph - N/A   Overcast
7:55 PM 80.8 °F 85.9 °F 73.9 °F 80% 30.04 in 10.0 mi East 5.8 mph - N/A   Scattered Clouds
8:15 PM 79.5 °F - 74.3 °F 84% 30.04 in 10.0 mi ESE 4.6 mph - N/A   Clear
8:35 PM 78.6 °F - 74.5 °F 87% 30.05 in 7.0 mi Calm Calm - N/A   Haze
8:55 PM 78.1 °F - 74.5 °F 89% 30.06 in 1.8 mi Calm Calm - N/A   Clear
9:15 PM 77.4 °F - 74.3 °F 90% 30.07 in 10.0 mi ESE 3.5 mph - N/A   Scattered Clouds
9:35 PM 77.0 °F - 73.4 °F 89% 30.08 in 10.0 mi ESE 4.6 mph - N/A   Mostly Cloudy
9:55 PM 76.6 °F - 73.8 °F 91% 30.08 in 10.0 mi East 4.6 mph - N/A   Mostly Cloudy
10:15 PM 77.0 °F - 73.4 °F 89% 30.09 in 10.0 mi East 3.5 mph - N/A   Mostly Cloudy
10:35 PM 76.1 °F - 73.6 °F 92% 30.09 in 10.0 mi East 3.5 mph - N/A   Scattered Clouds
10:55 PM 75.9 °F - 73.6 °F 92% 30.09 in 10.0 mi East 4.6 mph - N/A   Clear
11:15 PM 75.4 °F - 72.9 °F 92% 30.09 in 10.0 mi ENE 4.6 mph - N/A   Clear
11:35 PM 75.0 °F - 72.0 °F 90% 30.10 in 10.0 mi ENE 4.6 mph - N/A   Clear
11:55 PM 74.7 °F - 71.4 °F 90% 30.10 in 10.0 mi Calm Calm - N/A   Clear